Wind_Speed
8 9 8 7 8 10 10 10 10 11 11 13 13 14 13 14 14 14 13 12 11 12 12 12 12 13 12 12 12 13 14 15 14 13 13 13 12 14 16 18 19 21 20
13 11 9 8 9 10 11 9 10 9 10 10 10 11 11 12 10 9 9 9 10 10 11 12 12 12 13 13 12 10 11 13 14 13 13 13 10 13 15 17 19 19 18
14 13 10 9 9 10 10 9 9 9 9 8 9 9 9 9 9 9 9 9 10 10 11 11 12 12 12 12 12 12 12 13 12 11 12 13 10 12 15 16 17 18 17
13 13 11 10 9 9 9 9 8 8 8 7 7 6 8 8 8 9 9 8 8 9 12 11 12 11 11 11 12 12 13 12 11 9 10 11 9 11 17 17 17 17 17
11 11 10 9 8 8 8 8 8 7 7 7 7 8 6 7 7 7 7 8 8 8 10 9 11 12 10 10 10 11 12 10 9 8 9 9 8 10 17 18 17 16 16
12 10 9 8 8 7 6 6 6 6 6 6 6 6 7 6 6 7 6 5 6 8 8 8 9 10 10 9 9 9 9 7 6 6 6 7 8 7 13 16 15 16 15
13 11 9 8 6 6 6 6 5 5 6 6 6 6 6 7 7 7 6 5 6 6 7 7 8 7 8 10 8 8 6 3 1 8 6 7 8 8 8 10 13 14 14
11 10 8 7 6 6 6 6 6 6 6 6 6 6 7 7 7 7 7 7 7 7 7 8 9 6 6 10 10 9 6 3 3 6 5 5 8 9 11 12 14 14 12
10 10 9 7 6 5 5 5 6 6 7 7 7 7 7 8 8 8 9 9 9 8 8 8 7 6 6 9 11 10 8 5 3 5 3 2 4 12 16 14 15 14 13
10 9 7 7 6 5 5 5 5 6 6 7 8 9 9 9 9 10 9 10 10 10 9 8 8 8 6 8 11 12 11 8 5 6 5 3 2 8 15 15 16 13 12
11 10 9 8 7 6 5 5 5 5 6 7 9 10 10 11 11 11 11 12 12 12 11 10 9 9 7 8 10 12 12 12 9 6 6 4 3 6 11 13 12 12 11
12 11 10 9 9 9 8 8 8 7 7 8 8 9 11 12 11 12 12 12 13 12 13 12 11 10 9 10 10 11 12 12 12 9 7 5 7 9 11 11 11 9 9
17 14 11 11 12 12 12 11 12 11 9 9 9 8 9 10 13 12 13 13 13 14 14 14 13 13 13 12 12 12 11 12 13 12 9 7 9 9 10 10 11 12 9
20 19 19 18 16 15 14 13 13 13 13 12 11 10 10 10 10 12 14 13 15 14 15 15 16 16 15 14 13 13 13 12 12 14 13 10 12 11 11 10 11 10 9
29 23 20 18 19 21 19 16 15 15 15 14 13 12 12 11 11 10 13 14 14 15 16 16 17 17 18 16 16 16 16 15 13 13 15 13 13 14 12 12 9 9 8
33 29 24 18 15 18 18 18 17 16 15 15 13 12 12 12 11 12 13 13 16 18 15 17 17 18 19 18 18 18 18 18 17 16 16 16 15 15 16 14 15 12 10
32 33 30 25 17 12 14 17 17 17 17 15 14 13 13 14 15 14 13 13 12 13 14 14 17 20 21 20 21 21 20 20 20 20 19 20 20 18 19 19 18 17 14
32 37 37 32 26 17 13 13 17 15 14 15 14 13 14 14 14 15 15 15 14 15 14 14 15 16 17 20 22 23 23 22 22 22 20 20 19 20 22 22 23 21 18
32 34 39 42 41 31 20 14 11 12 13 12 15 15 14 15 15 17 17 17 15 16 16 15 15 15 15 16 17 21 23 22 24 24 24 24 22 22 23 24 22 25 22
34 34 37 39 45 43 37 27 16 14 13 14 15 16 17 16 17 18 19 18 16 15 15 14 14 14 13 15 17 16 17 19 20 21 25 25 25 25 24 24 24 28 26
36 36 37 37 38 43 44 45 35 31 22 18 18 19 19 20 18 18 19 19 19 18 17 16 16 15 15 15 11 10 14 18 18 20 20 23 26 24 24 24 26 27 28
29 33 33 32 32 35 33 31 26 25 22 20 21 18 20 22 20 19 19 20 21 21 18 17 15 14 13 11 7 6 2 5 13 21 23 22 24 26 25 23 25 28 29
29 35 29 31 28 31 32 29 30 24 34 38 41 33 27 23 24 22 21 21 22 22 22 19 18 17 15 10 15 6 2 4 2 4 13 20 21 23 25 27 26 28 30
26 28 30 32 28 29 30 27 25 18 19 22 29 37 37 24 25 29 26 24 24 24 24 23 21 19 18 16 10 13 13 4 2 3 2 7 11 18 22 24 26 27 31
26 28 30 30 29 31 32 27 24 21 19 22 28 36 39 35 26 26 29 26 27 29 26 24 22 21 20 19 18 10 13 16 15 5 4 4 7 9 12 18 25 30 32
24 27 28 30 31 32 30 29 26 24 26 25 26 27 32 39 39 31 27 31 28 29 28 28 27 25 23 22 21 19 16 6 7 8 6 6 11 20 26 22 20 21 29
Wind_Direction
178 155 162 150 147 144 145 132 121 111 111 113 113 116 115 114 117 116 112 112 111 101 98 99 101 101 104 107 105 107 102 101 102 107 117 111 110 114 116 112 113 106 105
162 155 155 148 145 146 141 133 121 117 114 117 118 120 122 124 121 122 122 118 111 109 109 107 105 104 104 104 110 117 110 113 110 111 121 122 120 128 128 124 114 109 107
154 151 156 148 145 144 143 143 140 136 123 120 123 121 120 120 123 120 118 120 120 119 118 115 113 111 111 109 107 107 113 116 112 112 114 122 116 136 133 129 124 119 115
153 156 159 152 148 148 155 156 154 149 147 140 132 127 128 124 125 126 126 125 129 128 127 123 121 117 116 115 116 114 116 119 116 115 121 133 109 128 136 127 120 117 117
152 156 163 164 161 155 155 159 164 164 164 163 161 160 149 139 137 134 135 139 144 139 142 134 127 123 121 121 125 124 121 124 130 116 124 136 134 117 135 130 125 124 123
155 156 158 166 173 177 176 174 175 181 182 183 179 180 174 164 158 152 156 156 163 155 156 158 138 130 135 135 139 140 138 134 129 146 148 146 145 133 128 133 136 132 131
157 164 170 178 182 186 190 195 197 195 194 197 200 194 192 192 184 184 176 175 173 174 172 169 161 153 150 156 158 165 160 153 184 197 179 180 165 152 153 143 140 139 136
161 162 167 174 186 195 206 214 218 222 222 219 216 218 219 215 214 210 204 202 199 197 189 185 185 179 173 174 170 180 186 163 136 149 172 201 201 175 178 162 153 145 144
173 171 170 174 187 199 213 222 229 234 237 237 232 231 231 233 232 230 226 226 217 209 205 196 201 200 190 181 188 191 196 199 191 187 185 175 203 202 198 176 165 155 154
184 181 182 190 198 216 221 221 232 241 246 247 248 246 245 243 242 242 236 233 232 223 217 215 209 207 201 191 196 201 208 214 220 212 218 217 262 228 199 195 170 160 157
197 196 201 205 211 216 226 230 228 237 249 253 252 251 249 249 247 245 241 238 237 234 227 225 220 218 212 199 203 204 212 221 225 228 234 242 207 144 154 160 169 162 167
218 222 229 228 228 226 232 237 244 250 262 259 264 265 257 253 253 252 250 248 241 238 238 234 229 226 223 214 210 211 214 219 221 223 225 230 200 187 181 177 169 173 176
321 287 255 245 241 242 242 247 246 253 262 262 263 274 266 260 252 253 254 250 246 240 237 232 229 226 225 224 221 222 218 221 223 223 221 216 204 200 200 189 188 185 188
343 322 302 295 272 256 251 249 247 254 260 264 259 262 265 261 259 256 253 256 252 246 244 238 232 230 233 230 227 228 227 227 229 228 228 229 211 211 220 209 209 213 207
358 346 331 310 291 283 263 255 254 258 264 264 261 261 257 258 257 260 257 256 259 251 247 245 242 236 233 234 234 233 233 233 235 238 232 231 225 218 218 237 233 223 227
7 2 353 344 320 296 275 270 266 269 268 260 259 258 259 259 260 262 261 261 263 254 253 253 248 245 245 243 242 240 240 240 241 241 238 237 233 229 227 230 238 243 239
13 15 15 8 356 331 303 282 281 287 275 264 262 263 262 262 263 261 258 262 264 253 254 253 249 247 244 244 247 247 244 243 242 244 245 246 244 241 242 240 237 239 243
15 21 25 23 17 10 356 316 293 285 280 283 277 274 275 273 270 265 260 253 254 258 257 251 249 249 251 249 249 247 249 247 245 244 245 247 246 246 255 249 243 242 245
19 18 26 28 26 20 10 12 348 313 303 293 295 292 286 282 280 276 269 263 256 251 252 253 250 250 253 259 259 255 252 252 249 246 243 245 246 247 254 250 249 242 243
23 24 24 26 27 25 20 10 3 358 356 334 315 308 306 297 291 283 275 265 257 250 243 243 247 248 244 251 257 262 264 258 252 250 250 250 249 247 251 253 251 237 236
23 24 21 20 21 23 22 17 8 352 353 340 347 338 325 310 298 291 280 267 255 248 250 251 252 251 250 248 253 273 263 255 254 256 258 251 247 249 246 250 251 243 233
20 20 17 17 17 18 18 14 8 7 350 358 340 335 342 326 310 295 282 271 261 253 249 245 242 243 244 234 207 219 286 270 250 249 248 249 248 248 250 248 249 241 236
16 15 12 12 12 12 11 7 6 2 358 355 352 340 330 320 316 306 284 272 263 255 250 248 244 237 235 228 220 206 180 227 320 263 247 243 245 250 250 248 247 244 243
8 6 10 7 9 9 10 7 7 3 349 339 341 341 335 319 314 308 289 273 261 256 252 250 247 239 236 233 227 227 236 202 153 332 326 272 261 255 253 250 251 249 248
4 3 5 1 3 1 4 6 356 348 339 331 334 333 334 331 316 310 296 279 261 254 251 248 242 236 235 237 233 223 228 238 246 224 264 258 283 272 266 264 263 261 255
358 -0 0 356 355 357 351 352 351 344 338 333 329 330 329 326 326 308 314 283 265 253 247 244 243 240 239 237 237 233 227 210 200 206 244 241 249 269 276 283 275 273 264
Height
806 808 809 810 811 812 814 815 816 816 818 818 820 821 822 823 824 824 825 826 826 827 828 828 828 829 830 830 830 831 831 831 832 833 834 835 836 837 838 838 839 840 841
806 808 810 811 812 813 815 816 818 819 819 820 821 822 823 824 825 826 827 827 828 829 829 830 831 831 831 832 832 833 833 833 834 835 836 837 838 839 839 840 841 842 844
807 809 811 812 813 815 816 817 819 820 821 823 823 823 824 825 827 827 828 829 829 830 831 832 832 833 833 833 834 834 835 836 837 837 838 839 840 840 841 842 843 844 846
808 810 812 814 815 816 818 819 821 822 822 823 824 825 826 826 827 829 830 831 831 831 832 833 834 835 835 836 836 836 837 838 839 839 840 841 842 842 843 845 845 846 848
811 813 814 816 817 818 819 820 821 822 823 824 825 826 826 827 828 829 831 831 832 832 833 834 835 836 837 838 839 839 839 840 841 841 842 843 844 845 845 847 848 849 849
813 815 816 818 819 819 820 821 822 823 823 825 825 826 827 828 829 829 831 832 832 833 834 835 836 837 838 839 840 841 841 841 842 843 843 844 845 847 846 848 848 849 851
813 815 817 819 820 821 822 822 823 824 824 825 826 826 827 828 829 829 831 832 833 834 835 836 838 838 839 839 841 842 842 843 843 843 845 846 847 848 849 849 850 851 853
815 817 818 819 821 821 822 823 823 824 825 825 826 827 828 828 829 830 831 832 833 834 834 836 837 838 839 840 841 842 843 844 844 844 845 846 847 848 850 850 852 853 854
818 818 819 821 822 822 823 824 824 824 825 825 826 826 827 828 829 829 831 832 832 833 835 835 837 838 839 839 840 842 843 844 844 845 845 846 847 847 849 850 851 853 854
819 820 821 822 823 823 824 824 824 824 825 825 825 826 826 827 828 829 830 831 832 833 834 835 836 837 838 839 840 841 842 843 845 845 846 846 846 845 848 850 851 853 854
820 820 821 822 822 823 824 824 824 824 824 824 824 825 825 826 827 828 829 830 831 831 833 834 835 836 837 838 839 840 841 843 844 845 846 846 847 846 849 851 853 853 854
821 821 822 822 822 823 823 824 824 824 824 823 823 824 824 825 825 826 827 828 829 830 832 833 834 835 837 838 838 839 840 841 843 844 845 846 847 848 849 851 852 854 855
828 826 824 823 822 822 822 823 823 823 823 823 823 823 823 823 824 825 826 827 827 829 830 831 833 834 835 836 837 838 839 839 841 842 844 845 847 849 850 851 852 854 855
827 826 826 827 825 823 821 822 822 822 822 822 822 822 822 821 822 823 824 825 825 827 827 829 830 831 833 834 835 836 837 838 839 841 842 844 846 848 850 851 852 852 853
826 824 822 821 822 824 822 821 820 820 820 821 820 821 820 820 820 821 821 823 823 824 825 827 828 829 830 831 833 834 835 837 838 839 841 842 844 846 848 850 850 851 852
831 826 822 818 818 818 819 822 821 820 819 819 819 819 819 819 819 819 819 820 821 822 823 824 825 826 828 829 830 831 833 834 836 837 838 840 842 843 845 847 849 850 850
837 831 823 818 816 815 816 818 819 821 821 819 818 818 817 817 818 818 818 818 818 819 820 821 822 823 824 826 827 828 829 830 832 834 836 838 839 840 842 844 845 848 849
841 834 829 822 817 814 814 815 816 817 818 820 818 818 817 817 816 816 816 816 816 817 818 818 819 820 821 822 822 824 825 827 828 830 832 834 835 837 839 840 843 845 846
844 839 832 827 821 818 815 814 815 816 817 817 818 818 817 816 815 815 815 815 814 814 814 815 816 817 818 819 819 819 820 822 824 825 827 829 831 834 835 836 837 840 843
845 841 836 831 826 822 819 815 814 814 815 816 816 816 816 815 814 813 813 813 813 811 811 812 813 814 815 816 817 816 817 817 819 820 822 823 825 827 829 831 832 835 837
846 841 837 833 830 825 821 820 817 816 815 814 815 815 814 813 812 812 811 810 810 809 809 809 810 811 812 813 814 814 813 813 814 816 817 817 819 821 823 825 826 828 832
850 847 843 839 836 832 830 828 828 823 820 817 813 811 811 811 810 808 807 808 808 807 806 805 805 807 809 810 811 812 812 810 809 809 811 812 814 816 817 819 821 823 826
852 849 847 844 841 836 833 830 826 823 819 814 810 808 807 808 807 806 804 804 804 805 803 802 802 802 804 806 807 808 811 810 808 806 806 808 810 811 812 815 816 818 821
858 855 851 848 844 839 835 831 829 827 824 820 817 813 809 805 803 803 801 800 799 800 800 799 799 799 800 801 803 804 804 806 808 808 805 806 807 807 808 810 811 813 815
861 857 853 849 845 841 836 834 831 828 825 819 814 810 807 803 800 798 797 795 794 794 794 795 795 795 795 796 798 800 801 802 804 806 804 804 804 804 805 806 808 809 810
862 859 855 850 846 842 838 835 832 827 821 817 812 807 803 801 797 795 793 790 788 788 787 787 789 789 790 791 792 794 796 797 798 801 803 802 801 801 801 802 803 803 804